This demonstration page uses our WeatherBlox Daily Observations layout. Learn more.

Left ArrowRight Arrow

Hourly Observations for February 13, 2017

Temp ( °F °C ) Dew Point ( °F °C ) Humidity (%) Winds ( mph kmh ) Pressure ( in mb ) Visibility ( mi km ) Precip ( " mm )
12:53 am 00:53 Clear 30 -1.1 24 -4.4 79 79 W 6 9 30.22 1024 10 16 0.00 0.00
1:53 am 01:53 Clear 30 -1.1 23 -5 75 75 SW 8 13 30.22 1023 10 16 0.00 0.00
2:53 am 02:53 Clear 30 -1.1 22 -5.6 72 72 W 7 11 30.22 1024 10 16 0.00 0.00
3:53 am 03:53 Clear 29 -1.7 23 -5 78 78 WSW 9 15 30.24 1024 10 16 0.00 0.00
4:53 am 04:53 Clear 31 -0.6 23 -5 72 72 WSW 13 20 30.26 1025 10 16 0.00 0.00
5:53 am 05:53 Clear 32 0 23 -5 69 69 SW 13 20 30.27 1025 10 16 0.00 0.00
6:53 am 06:53 Clear 29 -1.7 22 -5.6 75 75 SW 12 19 30.30 1026 10 16 0.00 0.00
7:53 am 07:53 Sunny 29 -1.7 22 -5.6 75 75 SW 13 20 30.33 1027 10 16 0.00 0.00
8:53 am 08:53 Sunny 33 0.6 23 -5 66 66 SW 9 15 30.34 1027 10 16 0.00 0.00
9:53 am 09:53 Sunny 36 2.2 25 -3.9 64 64 SW 10 17 30.35 1028 10 16 0.00 0.00
10:53 am 10:53 Sunny 39 3.9 26 -3.3 60 60 SW 13 20 30.34 1027 10 16 0.00 0.00
12:53 pm 12:53 Sunny 42 5.6 28 -2.2 58 58 SW 14 22 30.33 1027 10 16 0.00 0.00
1:53 pm 13:53 Sunny 43 6 28 -2 57 57 SW 13 20 30.30 1026 10 16 0.00 0.00
2:53 pm 14:53 Sunny 43 6.1 30 -1.1 60 60 WSW 12 19 30.30 1026 10 16 0.00 0.00
3:53 pm 15:53 Sunny 44 6.7 31 -0.6 60 60 WSW 9 15 30.29 1026 10 16 0.00 0.00
4:53 pm 16:53 Sunny 42 5.6 31 -0.6 65 65 WNW 6 9 30.29 1026 10 16 0.00 0.00
5:53 pm 17:53 Clear 37 2.8 30 -1.1 76 76 W 5 7 30.29 1026 10 16 0.00 0.00
6:53 pm 18:53 Clear 35 1.7 29 -1.7 78 78 WNW 6 9 30.30 1026 10 16 0.00 0.00
7:53 pm 19:53 Clear 31 -0.6 28 -2.2 89 89 SW 5 7 30.29 1026 10 16 0.00 0.00
8:53 pm 20:53 Clear 31 -0.6 27 -2.8 85 85 SW 8 13 30.28 1025 10 16 0.00 0.00
9:53 pm 21:53 Clear 32 0 27 -2.8 82 82 WSW 13 20 30.27 1025 10 16 0.00 0.00
10:53 pm 22:53 Clear 30 -1.1 27 -2.8 88 88 W 8 13 30.27 1025 10 16 0.00 0.00
11:53 pm 23:53 Clear 30 -1.1 27 -2.8 88 88 SW 8 13 30.27 1025 10 16 0.00 0.00

Powered by AerisWeather